Regional Weather Roundup
Issued by NWS

Home | Current Version | Previous Version | Text Only | Print | Product List | Glossary On
Versions: 1 2 3 4 5 6 7 8 9 10 11 12 13 14 15 16 17 18 19 20 21 22 23 24 25 26 27 28 29 30 31 32 33 34 35 36 37 38 39 40 41 42 43 44 45 46 47 48 49 50
000
ASUS43 KIND 190609
RWRIN

WEATHER ROUNDUP FOR INDIANA
NATIONAL WEATHER SERVICE INDIANAPOLIS IN
200 AM EDT FRI SEP 19 2014

NOTE: "FAIR" INDICATES FEW OR NO CLOUDS BELOW 12,000 FEET WITH NO
SIGNIFICANT WEATHER AND/OR OBSTRUCTIONS TO VISIBILITY.

* - STATION DOES NOT REPORT WEATHER SUCH AS PRECIPITATION OR FOG.

+ - STATION NOT QUALITY CONTROLLED BY THE NATIONAL WEATHER SERVICE.
    USE DATA WITH CAUTION...ESPECIALLY DEWPOINT AND RELATIVE
    HUMIDITY OBSERVATIONS.

INZ001>003-010>013-019-020-190700-
NORTHWEST INDIANA

CITY           SKY/WX    TMP DP  RH WIND       PRES   REMARKS
GARY /AIRPORT/ CLEAR     58  54  86 E7        30.16F
KNOX *+        CLEAR     50  47  92 E3        30.17R
LA PORTE +     CLEAR     51  51 100 CALM      30.19R
6HR MIN TEMP:  50; 6HR MAX TEMP:  59;

MICHIGAN CITY+ CLEAR     54  52  94 E3        30.19R
MONTICELLO +   CLEAR     55  50  84 E3        30.15R
RENSSELAER +   CLEAR     50  50 100 NE3       30.16R
VALPARAISO     CLEAR     52  49  89 E6        30.18R
6HR MIN TEMP:  51; 6HR MAX TEMP:  60;


$$

LMZ046-743>745-190700-
SOUTHERN LAKE MICHIGAN

STATION/POSITION TIME  TEMP WIND        PRES
                       AIR  DIR/SP/G
                 (UTC) (F)  (DEG/KT/KT) (MB)
MICHIGAN CITY    0600   58   90/  9/ 13   N/A

$$

INZ004-005-014>016-021>024-190700-
NORTH CENTRAL INDIANA

CITY           SKY/WX    TMP DP  RH WIND       PRES   REMARKS
GOSHEN         CLEAR     54  50  86 E7        30.19R
6HR MIN TEMP:  53; 6HR MAX TEMP:  62;

LOGANSPORT +   CLEAR     52  46  82 E5        30.17R
PERU/GRISSOM   CLEAR     55  53  95 E5        30.17R
6HR MIN TEMP:  53; 6HR MAX TEMP:  62;

ROCHESTER +    CLEAR     52  50  93 E6        30.18R
SOUTH BEND     CLEAR     56  50  80 NE3       30.20R
6HR MIN TEMP:  56; 6HR MAX TEMP:  66;

WARSAW +       CLEAR     52  50  93 E7        30.19R

$$

INZ006>009-017-018-025>027-190700-
NORTHEAST INDIANA

CITY           SKY/WX    TMP DP  RH WIND       PRES   REMARKS
ANGOLA *+      CLEAR     52  50  93 E5        30.21R
AUBURN +       CLEAR     50  48  93 E3        30.21S FOG
FORT WAYNE     PTCLDY    52  49  89 E5        30.20R
6HR MIN TEMP:  51; 6HR MAX TEMP:  62;

HUNTINGTON +   CLEAR     51  49  93 E3        30.18S
6HR MIN TEMP:  50; 6HR MAX TEMP:  60;


$$

INZ028-029-035-036-043>045-051>053-190700-
WEST CENTRAL INDIANA

CITY           SKY/WX    TMP DP  RH WIND       PRES   REMARKS
GREENCASTLE +  CLEAR     52  48  87 CALM      30.14S
LAFAYETTE      CLEAR     52  49  89 CALM      30.15R
6HR MIN TEMP:  50; 6HR MAX TEMP:  64;

TERRE HAUTE    CLEAR     50  47  89 NE3       30.12S
6HR MIN TEMP:  49; 6HR MAX TEMP:  62;


$$

INZ030>032-037>040-046>048-054>057-064-065-190700-
CENTRAL INDIANA

CITY           SKY/WX    TMP DP  RH WIND       PRES   REMARKS
CP ATTERBURY + CLEAR     46  46 100 CALM      30.15R FOG
FRANKFORT +    CLEAR     50  50 100 E6        30.16S
INDIANAPOLIS   CLEAR     57  48  72 NE8       30.13S
6HR MIN TEMP:  57; 6HR MAX TEMP:  67;

-EAGLE CREEK   CLEAR     56  48  74 NE3       30.14R
6HR MIN TEMP:  55; 6HR MAX TEMP:  67;

KOKOMO *+      CLEAR     52  46  82 E7        30.17R
MARION +       CLEAR     55  49  80 E7        30.18R
MT COMFORT *+  CLEAR     50  48  93 E7        30.16S
SHELBYVILLE    CLEAR     53  48  83 E7        30.14R
6HR MIN TEMP:  53; 6HR MAX TEMP:  64;

ZIONSVILLE +   CLEAR     54  47  76 E6        30.16S
6HR MIN TEMP:  50; 6HR MAX TEMP:  60;


$$

INZ033-034-041-042-049-050-058-059-190700-
EAST CENTRAL INDIANA

CITY           SKY/WX    TMP DP  RH WIND       PRES   REMARKS
MUNCIE         CLEAR     51  47  86 E5        30.17S
6HR MIN TEMP:  50; 6HR MAX TEMP:  61;


$$

INZ060-061-067>069-081>083-085>088-190700-
SOUTHWEST INDIANA

CITY           SKY/WX    TMP DP  RH WIND       PRES   REMARKS
EVANSVILLE     CLEAR     58  51  78 NE5       30.08F
6HR MIN TEMP:  57; 6HR MAX TEMP:  68;

WASHINGTON +   CLEAR     49  49 100 CALM      30.10S
6HR MIN TEMP:  49; 6HR MAX TEMP:  65;


$$

INZ062-063-066-070>080-084-089>092-190700-
SOUTH CENTRAL AND SOUTHEAST INDIANA

CITY           SKY/WX    TMP DP  RH WIND       PRES   REMARKS
BEDFORD +      CLEAR     55  46  71 E6        30.12
BLOOMINGTON    CLEAR     47  46  97 CALM      30.13S
6HR MIN TEMP:  47; 6HR MAX TEMP:  58;


$$



USA.gov is the U.S. government's official web portal to all federal, state and local government web resources and services.